Location: Foulognes
(49.1413°N, 0.8183°W)
Time: 21:35:29
(UTC+00:00)

H-2A R/B - Pass Details

Date: 21 October 2019
Orbit: 503 x 540 km, 97.3° (Epoch: 11 November)

Event Time Altitude Azimuth Distance (km) Brightness Sun altitude
Rises 17:53:13 0° 180° (S) 2,677 6.4 -9.0°
Reaches altitude 10° 17:55:22 10° 186° (S) 1,794 5.6 -9.3°
Maximum altitude 17:59:08 47° 261° (W) 722 4.0 -10.0°
Drops below altitude 10° 18:02:56 10° 336° (NNW) 1,815 5.7 -10.6°
Sets 18:05:08 0° 343° (NNW) 2,713 6.5 -10.9°
